DW7447 Weather Reports


time (UTC)temp
F
wind
direction
speed
knots
gust
knots
rain 1hr
in
rain 24hr
in
rain mn
in
humidity
%
barometer
mb
20260904055245 58 162 7.0 13.0 0.00 0.22 0.08 95 1004.3
20260904054748 58 224 5.2 10.4 0.00 0.22 0.08 95 1004.3
20260904054244 58 207 6.1 13.0 0.00 0.22 0.08 95 1004.4
20260904053747 58 197 7.0 13.0 0.00 0.22 0.08 95 1004.4
20260904053249 58 193 6.1 13.0 0.00 0.22 0.08 95 1004.3
20260904052745 58 186 7.8 13.0 0.00 0.22 0.08 95 1004.4
20260904052245 58 171 5.2 10.4 0.00 0.22 0.08 95 1004.3
20260904051746 58 220 5.2 10.4 0.00 0.22 0.08 95 1004.5
20260904051245 58 190 3.5 10.4 0.00 0.22 0.08 95 1004.6
20260904050746 58 217 4.3 10.4 0.00 0.22 0.08 95 1004.7
20260904050246 58 195 3.5 7.8 0.00 0.22 0.08 95 1004.7
20260904045745 58 206 4.3 9.6 0.00 0.22 0.08 95 1004.8
20260904045244 58 209 4.3 11.3 0.00 0.22 0.08 95 1004.9
20260904044746 58 204 7.8 11.3 0.00 0.22 0.08 95 1004.8
20260904044246 57 214 3.5 7.8 0.00 0.22 0.08 95 1004.4
20260904043746 57 212 4.3 7.8 0.00 0.22 0.08 95 1004.4
20260904043245 57 206 3.5 7.8 0.00 0.22 0.08 95 1004.4
20260904042748 57 200 4.3 7.8 0.00 0.22 0.08 95 1004.5
20260904041746 57 219 6.1 9.6 0.00 0.22 0.08 95 1004.4
20260904041245 57 209 3.5 11.3 0.00 0.22 0.08 95 1004.6
20260904040745 57 223 4.3 11.3 0.00 0.22 0.08 95 1004.4
20260904040245 57 186 5.2 9.6 0.00 0.22 0.08 95 1004.6
20260904035244 57 206 2.6 10.4 0.00 0.22 0.08 96 1004.8
20260904034746 57 188 2.6 7.8 0.00 0.22 0.08 96 1004.6
20260904034245 57 188 5.2 7.8 0.00 0.22 0.08 96 1004.7
20260904033745 57 197 4.3 9.6 0.00 0.22 0.08 96 1004.9
20260904033250 57 197 6.1 9.6 0.00 0.22 0.08 96 1005.0
20260904032244 57 252 2.6 10.4 0.00 0.22 0.08 96 1005.3
20260904031747 57 197 4.3 10.4 0.00 0.22 0.08 96 1005.5
20260904031245 57 182 3.5 10.4 0.00 0.22 0.08 96 1005.2
20260904030746 57 212 3.5 10.4 0.00 0.22 0.08 96 1005.2
20260904030245 57 192 4.3 10.4 0.00 0.22 0.08 96 1005.2
20260904025744 57 178 5.2 10.4 0.00 0.22 0.08 96 1005.5
20260904025247 57 166 3.5 7.8 0.00 0.22 0.08 96 1005.6
20260904024744 57 186 2.6 7.0 0.00 0.22 0.08 96 1005.7
20260904023745 57 188 2.6 10.4 0.00 0.22 0.08 96 1005.9
20260904023245 57 214 3.5 10.4 0.00 0.22 0.08 96 1005.9
20260904022746 57 202 3.5 10.4 0.00 0.22 0.08 96 1005.7
20260904021743 57 207 4.3 7.8 0.01 0.22 0.08 96 1005.8
20260904021246 57 197 4.3 10.4 0.01 0.22 0.08 96 1006.1
20260904020745 57 200 4.3 10.4 0.01 0.22 0.08 96 1005.9
20260904020243 57 207 3.5 9.6 0.01 0.22 0.08 96 1006.0
20260904015746 57 214 4.3 9.6 0.01 0.22 0.08 96 1006.0
20260904015248 57 203 4.3 9.6 0.01 0.22 0.08 96 1005.9
20260904014748 57 195 3.5 10.4 0.02 0.22 0.08 96 1006.0
20260904014244 57 186 4.3 10.4 0.02 0.22 0.08 96 1005.9
20260904013245 57 209 3.5 9.6 0.02 0.22 0.08 96 1006.2
20260904012733 57 199 2.6 9.6 0.02 0.22 0.08 96 1006.2
20260904012233 57 182 6.1 11.3 0.02 0.21 0.07 96 1006.5
20260904011735 57 169 7.0 11.3 0.02 0.21 0.07 96 1006.3
20260904011233 57 196 5.2 10.4 0.02 0.21 0.07 96 1006.7
20260904010731 57 220 3.5 10.4 0.02 0.21 0.07 96 1006.8
20260904010232 57 207 2.6 7.8 0.03 0.21 0.07 96 1006.8
20260904005717 57 196 3.5 7.8 0.04 0.21 0.07 96 1007.0
20260904005204 57 176 4.3 9.6 0.03 0.20 0.06 96 1007.0
20260904004205 57 171 4.3 7.0 0.04 0.20 0.06 95 1007.4
20260904003704 57 192 4.3 7.8 0.04 0.20 0.06 95 1007.3
20260904003145 57 180 4.3 9.6 0.04 0.20 0.06 95 1007.7
20260904002643 57 196 3.5 9.6 0.03 0.20 0.06 95 1007.5
20260904002150 57 178 3.5 10.4 0.04 0.20 0.06 95 1007.6
20260904001648 57 182 5.2 10.4 0.05 0.20 0.06 95 1007.5
20260904001146 57 221 5.2 9.6 0.04 0.19 0.05 95 1007.5
20260904000645 58 200 4.3 10.4 0.03 0.18 0.04 95 1007.7
20260904000133 58 193 5.2 10.4 0.04 0.18 0.03 95 1007.8
20260903235632 58 206 3.5 7.8 0.03 0.17 0.03 95 1007.9
20260903234604 58 206 5.2 11.3 0.02 0.17 0.02 94 1008.1
20260903233045 58 210 5.2 10.4 0.03 0.17 0.02 94 1008.3
20260903231006 58 183 4.3 10.4 0.02 0.15 0.01 94 1008.7
20260903230506 58 214 4.3 13.9 0.02 0.15 0.01 94 1008.8
20260903230004 59 206 4.3 13.9 0.02 0.14 0.14 94 1008.8
20260903224945 59 240 5.2 10.4 0.02 0.14 0.14 94 1008.8
20260903224442 59 223 4.3 10.4 0.02 0.14 0.14 94 1008.9
20260903223433 59 195 5.2 9.6 0.01 0.13 0.13 94 1009.0
20260903222911 59 168 4.3 10.4 0.01 0.13 0.13 94 1009.0
20260903222407 59 176 6.1 10.4 0.01 0.13 0.13 94 1009.0
20260903221906 59 207 6.1 10.4 0.01 0.13 0.13 94 1009.0
20260903221406 59 206 5.2 12.2 0.01 0.13 0.13 94 1009.0
20260903220850 59 152 6.1 14.8 0.02 0.13 0.13 94 1008.9
20260903220344 59 213 6.1 14.8 0.02 0.13 0.13 94 1009.0
20260903215845 59 203 5.2 13.9 0.01 0.13 0.13 94 1009.2
20260903215343 59 213 6.1 10.4 0.01 0.13 0.13 94 1009.2
20260903214843 60 217 5.2 10.4 0.01 0.13 0.13 94 1009.1
20260903214333 60 171 4.3 10.4 0.01 0.13 0.13 94 1009.3
20260903213832 60 204 5.2 10.4 0.01 0.13 0.13 94 1009.4
20260903213306 60 223 7.0 13.0 0.01 0.13 0.13 94 1009.4
20260903212308 60 182 9.6 15.6 0.02 0.13 0.13 94 1009.4
20260903211807 60 200 5.2 16.5 0.02 0.13 0.13 94 1009.6
20260903211305 60 189 10.4 16.5 0.02 0.13 0.13 94 1009.6
20260903210806 60 197 5.2 12.2 0.01 0.12 0.12 94 1009.7
20260903205802 60 154 5.2 13.0 0.02 0.12 0.12 94 1009.7
20260903205306 60 155 7.8 15.6 0.02 0.12 0.12 94 1009.7
20260903204744 60 204 7.0 15.6 0.02 0.12 0.12 94 1009.6
20260903204243 60 212 6.1 15.6 0.02 0.12 0.12 94 1009.6
20260903203733 60 199 8.7 15.6 0.04 0.12 0.12 94 1009.6
20260903203231 61 196 7.8 15.6 0.06 0.12 0.12 94 1009.8
20260903202708 61 190 9.6 15.6 0.07 0.12 0.12 94 1009.8
20260903202205 61 172 7.8 16.5 0.07 0.11 0.11 94 1009.8
20260903201702 61 179 9.6 16.5 0.08 0.11 0.11 94 1009.9
20260903201205 61 196 7.8 13.9 0.09 0.11 0.11 94 1010.0
20260903200707 61 202 8.7 13.9 0.09 0.11 0.11 94 1009.9
20260903200203 61 175 4.3 9.6 0.08 0.10 0.10 94 1010.1
20260903195643 62 168 4.3 12.2 0.08 0.02 0.10 93 1010.3
20260903195145 62 204 4.3 12.2 0.07 0.02 0.09 92 1010.3
20260903194647 62 228 5.2 9.6 0.07 0.02 0.09 92 1010.3
20260903194145 62 166 3.5 9.6 0.06 0.02 0.09 92 1010.3
20260903193644 62 221 4.3 9.6 0.05 0.02 0.06 90 1010.5
20260903193144 62 219 6.1 9.6 0.03 0.02 0.06 90 1010.4
20260903192643 62 195 1.7 9.6 0.02 0.02 0.04 89 1010.3
20260903192145 63 209 4.3 7.8 0.01 0.02 0.03 88 1010.4
20260903191645 63 217 4.3 11.3 0.01 0.02 0.03 88 1010.3
20260903191144 63 206 3.5 12.2 0.00 0.02 0.02 88 1010.4
20260903190644 63 209 6.1 13.0 0.00 0.02 0.02 87 1010.4
20260903190145 63 213 6.1 17.4 0.00 0.02 0.02 87 1010.5
20260903185645 63 245 5.2 17.4 0.00 0.02 0.02 87 1010.5
20260903185144 63 202 8.7 15.6 0.00 0.02 0.02 87 1010.4
20260903184644 63 199 7.0 15.6 0.00 0.02 0.02 87 1010.3
20260903184145 63 219 7.8 13.9 0.00 0.02 0.02 87 1010.5
20260903183645 63 235 7.8 13.0 0.00 0.02 0.02 87 1010.5
20260903183144 63 196 6.1 16.5 0.00 0.02 0.02 88 1010.6
20260903182143 63 231 7.8 13.0 0.00 0.02 0.02 89 1010.7
20260903181644 63 199 7.8 13.0 0.00 0.02 0.02 89 1010.8
20260903181145 63 257 7.0 11.3 0.00 0.02 0.02 88 1010.8
20260903180644 63 209 7.8 11.3 0.01 0.02 0.02 88 1010.6
20260903175145 63 216 6.1 14.8 0.01 0.02 0.02 88 1010.6
20260903174644 63 238 7.0 12.2 0.01 0.02 0.02 88 1010.8
20260903174144 63 233 7.0 12.2 0.01 0.02 0.02 88 1010.8
20260903173644 64 210 3.5 13.0 0.01 0.02 0.02 88 1010.8
20260903173144 64 243 8.7 13.0 0.01 0.02 0.02 88 1010.7
20260903172646 64 221 6.1 15.6 0.01 0.02 0.02 87 1010.8
20260903172148 64 221 7.8 15.6 0.01 0.02 0.02 87 1010.7
20260903171646 64 231 5.2 15.6 0.01 0.02 0.02 87 1010.8
20260903171147 64 238 7.0 15.6 0.01 0.02 0.02 86 1010.8
20260903170645 64 237 6.1 12.2 0.00 0.02 0.02 86 1010.9
20260903170144 64 189 6.1 11.3 0.00 0.02 0.02 85 1010.9
20260903165147 65 213 5.2 12.2 0.00 0.02 0.02 82 1011.1
20260903164145 66 226 7.8 17.4 0.00 0.02 0.02 80 1011.4
20260903162644 67 203 8.7 19.1 0.00 0.02 0.02 77 1011.2
20260903161644 67 223 7.8 18.2 0.00 0.02 0.02 77 1011.5
20260903161145 67 214 9.6 19.1 0.00 0.02 0.02 76 1011.4
20260903160645 67 234 7.0 19.1 0.00 0.02 0.02 76 1011.5
20260903154645 68 231 11.3 24.3 0.00 0.02 0.02 75 1011.8
20260903154144 68 220 10.4 24.3 0.00 0.02 0.02 76 1011.8
20260903153644 68 199 7.0 15.6 0.00 0.02 0.02 74 1011.7
20260903153144 68 244 10.4 20.9 0.00 0.02 0.02 74 1011.8
20260903152644 68 228 10.4 20.9 0.00 0.02 0.02 74 1011.9
20260903152144 69 202 9.6 18.2 0.00 0.02 0.02 73 1011.8
20260903151644 69 188 8.7 20.9 0.00 0.02 0.02 72 1011.9
20260903151144 69 209 12.2 20.9 0.00 0.02 0.02 71 1012.0
20260903150132 69 217 8.7 18.2 0.00 0.02 0.02 70 1011.9
20260903145632 70 257 9.6 17.4 0.00 0.02 0.02 70 1011.9
20260903145105 70 272 9.6 17.4 0.00 0.02 0.02 69 1012.1
20260903144606 70 271 7.8 13.9 0.00 0.02 0.02 69 1011.9
20260903143042 70 265 6.1 16.5 0.00 0.03 0.02 69 1012.0
20260903142545 69 231 8.7 16.5 0.00 0.03 0.02 69 1012.0
20260903142043 69 219 7.0 20.0 0.00 0.03 0.02 68 1011.9
20260903141542 69 244 11.3 20.0 0.00 0.03 0.02 68 1011.8
20260903141047 69 223 9.6 19.1 0.00 0.03 0.02 70 1011.7
20260903140541 69 212 8.7 19.1 0.00 0.03 0.02 69 1011.6
20260903140039 69 200 10.4 20.9 0.00 0.03 0.02 69 1011.7
20260903135537 69 233 13.0 20.9 0.00 0.03 0.02 69 1011.9
20260903135008 68 202 7.8 20.0 0.00 0.03 0.02 69 1011.8
20260903134509 68 296 9.6 20.0 0.00 0.03 0.02 69 1011.7
20260903133948 69 217 13.9 20.0 0.00 0.03 0.02 69 1011.6
20260903133442 69 224 13.9 17.4 0.00 0.03 0.02 70 1011.7
20260903132944 68 257 7.0 17.4 0.00 0.03 0.02 70 1011.9
20260903132448 67 257 11.3 16.5 0.00 0.03 0.02 70 1012.1
20260903131943 68 226 5.2 22.6 0.00 0.03 0.02 68 1012.1
20260903131442 68 262 9.6 22.6 0.00 0.04 0.02 68 1011.9
20260903130933 68 234 8.7 18.2 0.00 0.04 0.02 68 1012.0
20260903130432 68 206 8.7 19.1 0.00 0.05 0.02 68 1011.9
20260903125934 68 238 12.2 15.6 0.00 0.06 0.02 67 1011.9
20260903125416 68 247 7.8 21.7 0.00 0.06 0.02 67 1011.8
20260903124916 68 226 9.6 21.7 0.00 0.06 0.02 67 1011.7
20260903124408 69 295 9.6 19.1 0.00 0.06 0.02 67 1011.6
20260903123906 69 275 8.7 19.1 0.00 0.06 0.02 75 1011.6
20260903123405 68 252 9.6 17.4 0.00 0.07 0.02 75 1011.6
20260903122405 68 228 9.6 21.7 0.00 0.07 0.02 72 1011.9
20260903121904 68 209 10.4 16.5 0.00 0.07 0.02 72 1011.9
20260903121405 68 245 8.7 18.2 0.00 0.07 0.02 72 1011.9
20260903120904 68 216 12.2 21.7 0.00 0.07 0.02 72 1012.0
20260903120403 68 237 10.4 21.7 0.00 0.07 0.02 72 1011.9
20260903115842 68 179 8.7 17.4 0.00 0.07 0.02 72 1011.8
20260903114833 69 231 6.1 15.6 0.00 0.07 0.02 72 1011.9
20260903113807 70 228 12.2 19.1 0.00 0.07 0.02 75 1011.8
20260903113250 70 214 9.6 18.2 0.00 0.07 0.02 75 1011.7
20260903112743 69 259 12.2 16.5 0.00 0.07 0.02 75 1011.7
20260903112244 69 251 8.7 14.8 0.00 0.07 0.02 77 1011.6
20260903111731 67 231 8.7 14.8 0.00 0.07 0.02 80 1011.4
20260903111234 67 303 4.3 10.4 0.00 0.07 0.02 82 1011.7
20260903110734 67 261 4.3 9.6 0.00 0.07 0.02 82 1011.6
20260903110231 66 233 4.3 9.6 0.00 0.07 0.02 82 1011.6
20260903105733 65 258 5.2 13.0 0.00 0.07 0.02 81 1011.8
20260903103706 65 286 5.2 12.2 0.00 0.07 0.02 81 1011.6
20260903103207 66 259 7.8 12.2 0.00 0.07 0.02 80 1011.7
20260903102203 66 216 5.2 13.0 0.00 0.07 0.02 80 1011.6
20260903101703 66 223 7.8 14.8 0.00 0.07 0.02 80 1011.6
20260903101155 67 235 7.8 14.8 0.00 0.07 0.02 80 1011.7
20260903100146 66 281 6.1 14.8 0.00 0.07 0.02 81 1011.4
20260903095642 66 254 7.8 15.6 0.00 0.07 0.02 80 1011.3
20260903095143 66 234 7.8 15.6 0.00 0.07 0.02 82 1011.3
20260903094644 66 221 6.1 13.9 0.00 0.07 0.02 82 1011.4
20260903094142 66 219 6.1 13.9 0.00 0.07 0.02 83 1011.5
20260903093648 66 200 8.7 13.9 0.00 0.07 0.02 85 1011.5
20260903093143 66 223 8.7 13.9 0.00 0.07 0.02 85 1011.4
20260903091643 65 195 7.8 13.9 0.00 0.07 0.02 88 1011.5
20260903091145 65 223 2.6 13.0 0.01 0.07 0.02 88 1011.2
20260903090644 64 269 6.1 13.0 0.02 0.07 0.02 89 1011.4
20260903090141 64 240 5.2 11.3 0.02 0.07 0.02 90 1011.3
20260903085643 64 243 7.0 10.4 0.02 0.06 0.02 91 1011.2
20260903085144 63 259 7.0 11.3 0.02 0.06 0.02 93 1011.3
20260903084643 63 240 6.1 11.3 0.02 0.06 0.02 93 1010.9
20260903084147 63 254 5.2 11.3 0.02 0.06 0.02 93 1010.9
20260903083642 63 233 6.1 11.3 0.02 0.06 0.02 94 1010.9
20260903083143 62 227 4.3 11.3 0.02 0.06 0.02 92 1011.0
20260903082142 63 227 5.2 11.3 0.02 0.06 0.02 92 1011.1
20260903081643 63 209 3.5 10.4 0.02 0.06 0.02 91 1011.0
20260903081144 63 206 7.0 10.4 0.01 0.06 0.00 91 1011.1
20260903080641 63 307 3.5 7.8 0.00 0.06 0.00 91 1011.1
20260903080145 63 272 5.2 10.4 0.00 0.06 0.00 91 1010.9
20260903075143 63 233 3.5 11.3 0.00 0.06 0.00 92 1010.8
20260903074644 63 227 5.2 11.3 0.00 0.06 0.00 92 1011.0
20260903074144 63 244 5.2 11.3 0.00 0.06 0.00 92 1010.9
20260903073644 63 243 2.6 7.0 0.00 0.06 0.00 92 1010.8
20260903072645 63 223 4.3 11.3 0.00 0.06 0.00 92 1010.5
20260903072147 63 252 3.5 11.3 0.00 0.06 0.00 92 1010.4
20260903071143 63 189 3.5 13.0 0.00 0.06 0.00 92 1010.4
20260903070644 63 227 7.0 13.9 0.00 0.06 0.00 92 1010.4
20260903070144 63 203 5.2 13.9 0.00 0.06 0.00 92 1010.4
20260903065643 63 228 8.7 13.9 0.00 0.06 0.00 92 1010.4
20260903065143 63 186 8.7 13.9 0.00 0.06 0.00 92 1010.3
20260903064644 63 247 5.2 14.8 0.00 0.06 0.00 92 1010.4
20260903064142 63 219 8.7 14.8 0.00 0.06 0.00 92 1010.3
20260903063647 63 190 4.3 13.0 0.00 0.06 0.00 91 1010.0
20260903063145 63 210 9.6 13.9 0.00 0.06 0.00 91 1010.1
20260903062644 63 283 8.7 13.9 0.00 0.06 0.00 91 1009.9
20260903062144 63 257 6.1 12.2 0.00 0.06 0.00 91 1009.9
20260903061643 63 254 7.0 14.8 0.00 0.06 0.00 90 1009.8
20260903061144 63 200 9.6 16.5 0.00 0.06 0.00 90 1009.8
20260903060643 63 224 8.7 16.5 0.00 0.06 0.00 90 1009.7
20260903060143 63 199 5.2 13.0 0.00 0.06 0.00 91 1009.7
20260903055645 63 228 7.8 14.8 0.00 0.06 0.00 90 1009.6